Terug naar catalogus

STARLINK-32437

ActiefCommunicatieVLEO
NORAD 63001·PAYLOAD·🇺🇸 United States

Gelanceerd Feb 11, 2025 vanaf Cape Canaveral Space Force Station

Loading…

Volgende Passages (komende 24 uur)

TLE

VersSource: CelesTrak SupGP

Epoch: Sep 15, 2026, 02:33 UTC

1 63001C 25031W   26258.10673611  .00016925  00000+0  61311-3 0  2584
2 63001  42.9993 154.0457 0001343 274.4008 280.1199 15.27564456    16

Volg STARLINK-32437 in realtime met AllMySat

Download on the App Store